Preview of NWS' New Version of Forecast
This preview is not operational and should not be used for support decisions.

Regional Weather Roundup (RWR)

Issued by National Weather Service (NWS)

                            
000
ASCA42 TJSJ 152110
RWRPR 
PUERTO RICO/U.S. VIRGIN ISLANDS HOURLY WEATHER ROUNDUP
NATIONAL WEATHER SERVICE SAN JUAN PR
500 PM AST SAT JUN 15 2019

PRZ001>002-007>008-010-152200-
PUERTO RICO
  
CITY           SKY/WX    TMP DP  RH WIND       PRES   REMARKS
SAN JUAN LMM   MOSUNNY   84  75  74 E20       30.01S HX  92           
AGUADILLA      PTSUNNY   82  73  74 E15       30.02F                  
CEIBA          CLOUDY    86  73  66 E10       30.03R HX  93           
$$

VIZ001>002-152200-
U.S. VIRGIN ISLANDS
  
CITY           SKY/WX    TMP DP  RH WIND       PRES   REMARKS
CHARLOTTE AMA  MOSUNNY   88  72  58 NE15      30.00S HX  94           
CHRISTIANSTED  MOSUNNY   82  72  69 E18       30.01S                  
$$

HOURLY WEATHER ROUNDUP FOR THE NEWS MEDIA
  
CITY           SKY/WX    TMP DP  RH WIND       PRES   REMARKS
ORLANDO        PTSUNNY   87  71  58 E12       30.05F HX  93           
NEW YORK       PTSUNNY   71  62  73 S24G31    30.01F                  
NEWARK         PTSUNNY   81  46  29 SW18G26   29.97F                  
CHICAGO        LGT RAIN  67  64  90 S5        29.77S                  
HARTFORD       FAIR      73  53  49 SW21G32   30.00F                  
BOSTON         PTSUNNY   81  46  29 SW21G31   29.91F                  
DALLAS         MOSUNNY   93  69  45 S16G26    29.79F HX  98           
PHILADELPHIA   PTSUNNY   79  52  38 SW20G25   30.02F                  
LOS ANGELES    CLOUDY    68  59  73 W10       29.94F                  
WASHINGTON DC  PTSUNNY   81  54  39 S14       30.02F